Location: Bretagne
(43.8474°N, 0.4650°W)
Time: 05:28:26
(UTC+00:00)

Cosmos 1340 Rocket - Pass Details

Date: 15 January 2026
Orbit: 486 x 516 km, 81.2° (Epoch: 10 February)

Event Time Altitude Azimuth Distance (km) Brightness Sun altitude
Rises 17:39:36 0° 3° (N) 2,625 6.0 -8.9°
Reaches altitude 10° 17:42:07 10° 19° (NNE) 1,740 5.0 -9.4°
Maximum altitude 17:45:07 21° 71° (ENE) 1,180 3.9 -9.9°
Drops below altitude 10° 17:48:06 10° 122° (ESE) 1,739 5.0 -10.4°
Sets 17:50:36 0° 139° (SE) 2,624 6.1 -10.8°
